Flag for U.S.A. Weather past 2 weeks in Pasadena, California, U.S.A.

Now
68 °F

Clear.


Feels Like: 68 °F
Forecast: 63 / 87 °F
Wind: 7 mph from Southeast

Location: Burbank-Glendale-Pasadena Airport

Current Time: Sep 2, 2014 at 4:00:18 AM

Latest Report: Sep 2, 2014 at 2:53 AM


Visibility: 10 mi

Pressure: 29.81 "Hg

Humidity: 78%

Dew point: 61 °F

Location of PasadenaLocation

Historic Weather in Pasadena — Graph

°F

Pasadena temperature yesterday

Maximum temperature yesterday: 88 °F (at 2:53 PM)
Minimum temperature yesterday: 68 °F (at 6:53 AM)
Average temperature yesterday: 76 °F

Past Weeks' High & Low Weather Summary

 TemperatureHumidityPressure
High99 °F (Aug 28, 3:53 PM)90% (Aug 31, 6:53 AM)30.01 "Hg (Aug 31, 6:53 AM)
Low62 °F (Aug 24, 6:53 AM)9% (Aug 28, 7:53 PM)29.70 "Hg (Aug 30, 5:53 PM)
Average75 °F54%29.85 "Hg
* Reported Aug 18 2:53 AM — Sep 2 2:53 AM, Pasadena, Weather by CustomWeather, © 2014

Note: Actual official high and low records may vary slightly from our data, if they occured in-between our weather recording intervals... More about our weather records

Advertising

Pasadena weather history for previous 24 hours

 ConditionsComfort  
Time TempWeatherWind HumidityBarometerVisibility
2:53 AM
Sep 2
68 °FClear.7 mph78%29.81 "Hg10 mi
1:53 AM69 °FClear.7 mph76%29.80 "Hg10 mi
12:53 AM70 °FClear.5 mph79%29.79 "Hg10 mi
11:53 PM
Sep 1
71 °FClear.6 mph76%29.79 "Hg10 mi
10:53 PM72 °FClear.5 mph73%29.79 "Hg10 mi
9:53 PM73 °FClear.5 mph69%29.79 "Hg10 mi
8:53 PM75 °FClear.7 mph64%29.78 "Hg10 mi
7:53 PM78 °FSunny.6 mph58%29.75 "Hg10 mi
6:53 PM82 °FSunny.8 mph46%29.73 "Hg10 mi
5:53 PM85 °FSunny.9 mph39%29.73 "Hg10 mi
4:53 PM87 °FSunny.9 mph33%29.73 "Hg10 mi
3:53 PM88 °FSunny.5 mph33%29.73 "Hg10 mi
2:53 PM88 °FSunny.8 mph36%29.74 "Hg10 mi
1:53 PM87 °FSunny.9 mph36%29.76 "Hg10 mi
12:53 PM86 °FSunny.12 mph37%29.77 "Hg10 mi
11:53 AM84 °FSunny.9 mph45%29.79 "Hg10 mi
10:53 AM82 °FSunny.8 mph44%29.80 "Hg10 mi
9:53 AM77 °FSunny.No wind58%29.81 "Hg10 mi
8:53 AM72 °FSunny.No wind73%29.80 "Hg7 mi
7:53 AM70 °FPassing clouds.No wind79%29.80 "Hg8 mi
6:53 AM68 °FPassing clouds.No wind84%29.80 "Hg8 mi
5:53 AM69 °FPassing clouds.5 mph81%29.78 "Hg8 mi
4:53 AM69 °FLow clouds.6 mph84%29.78 "Hg9 mi
Weather by CustomWeather, © 2014

See weather overviewHow to use our weather pages